マクノート彗星

P/2012 O1 ( McNaught ) 2019

English version
Home page
Updated on November 4, 2020

---------------------------------------------------------------------

・ プロフィール

・ 軌道要素

Epoch 2019 Mar. 18.0 TT = JDT 2458560.5
T 2019 Mar. 2.29864 TT                                  MPC
q   1.4353029            (2000.0)            P               Q
n   0.14812382     Peri.  238.18456     +0.86036679     +0.49300163
a   3.5376873      Node    91.98535     -0.41287888     +0.82290945
e   0.5942821      Incl.    7.43360     -0.29883107     +0.28243482
P   6.65
From 87 observations 2012 July 18-Nov. 18, mean residual 0".5.

・ 光度変化

        m1 = 17.5 + 5 logΔ + 10.0 log r

---------------------------------------------------------------------

軌道要素はM.P.E.C. 2012-W54に掲載されたものです。
光度グラフはComet for Windowsで作成したものです。

---------------------------------------------------------------------

Copyright(C) Seiichi Yoshida (comet@aerith.net). All rights reserved.